Погода в Жукове

Россия / Смоленская область     54°54′14″N   32°01′08″E
темп.,
°C
ветер,
м/с
пор.,
м/с
влажн.,
%
обл.,
%
осадки,
мм/ч
давл.,
гПа
погр.,
м
11 мая, вт
вт1100:00+7вюв227715 0.0 102741
03:00+6в238060 0.0 102845
06:00+6в237980 0.0 102865
09:00+12в3556100 0.0 1027407
12:00+16в353925 0.0 1026956
15:00+18в453914 0.0 10241131
18:00+18в35565 0.0 1024862
21:00+12в310805 0.0 1024204
12 мая, ср
ср1200:00+11вюв311900 0.0 1024226
03:00+10вюв28976 0.0 1024206
06:00+9юв39920 0.0 1025358
09:00+12юв46630 0.0 1026712
12:00+15вюв34495 0.0 10241262
15:00+16в254542 0.0 10211240
18:00+13юв2269100 0.0 101949
21:00+11с3897100 1.1 1015285
13 мая, чт
чт1300:00+9юв4995100 2.4 1016587
03:00+7в399813 2.4 1016274
06:00+7в51493100 0.0 1015636
09:00+9вюв51187100 0.1 10151054
12:00+13юв61162100 0.3 10131665
15:00+13ююв585947 0.6 10141535
18:00+13ююв47665 0.1 10131188
21:00+9юв2788100 0.1 1013165
14 мая, пт
пт1400:00+8юв3892100 0.0 1014169
03:00+7юв3109035 0.0 1014210
06:00+8вюв41186100 0.0 1013295
09:00+10вюв31084100 0.1 1013369
12:00+14юв4978100 0.1 1011857
15:00+17вюв488070 1.0 1009829
18:00+18ююв48815 1.9 1008803
21:00+13ююв229638 3.9 100826
15 мая, сб
сб1500:00+12ю229631 0.6 100838
03:00+11юв22965 0.6 100819
06:00+11вюв229611 0.0 100756
09:00+15ююв249096 1.4 1007519
12:00+16ююз248653 0.2 1006619
15:00+16юз3684100 2.4 1006840
18:00+15з4790100 1.8 1006708
21:00+12зюз279811 1.9 1007191